Starlink 30809

operational
NORAD ID: 58183 Int'l Des: 2023-167 Owner: SPXS Country: US Constellation: starlink
LEOCIRCULAR

About Starlink 30809

Description loading...

Live Position

Loading 3D Globe...

Upcoming Passes

Altitude History

Altitude vs Time

uPlot chart will show altitude changes over time

Two-Line Element Set

1 58183U 23167J 25258.07037273 .00000581 00000-0 58063-4 0 9995
2 58183 43.0080 20.5304 0001378 270.8233 89.2452 15.02538323104535
Epoch: Sep 15, 2025 • Age: 12 hours

Current Status

Altitude 566.7 km
Velocity 7.58 km/s
Sub-Earth Point -30.62°S, 34.1°E
Launch Date Oct 30, 2023
Age 1.8 years
Type internet

Technical Details

Classification Payload
Mass 730.00 kg
Dry Mass 700.00 kg
Total Mass 730.00 kg
Length 0.30 m
Diameter 4.10 m
Span 29.00 m
Shape Box + pan
Manufacturer SPXS
Bus Type Starlink V2M
Phase Status In Orbit
Owner/State SPXS/US

Large Constellations

Loading constellations...